Honolulu, HI

1:55 PM HST on September 21, 2017 (GMT -1000)
Honolulu International

Weather History for PHNL - October, 2012

Change the Weather History Date:

Tuesday, October 23, 2012

  Actual Average Record
Temperature  
Mean Temperature 79 °F 80 °F  
Max Temperature 84 °F 86 °F 89 °F (1974)
Min Temperature 74 °F 73 °F 66 °F (1965)
Degree Days  
Heating Degree Days 0 0  
Month to date heating degree days 0 0  
Since 1 July heating degree days 0 0  
Cooling Degree Days 14 15  
Month to date cooling degree days 340 354  
Year to date cooling degree days 3750 3833  
Growing Degree Days 28 (Base 50)    
Moisture  
Dew Point 67 °F    
Average Humidity 67    
Maximum Humidity 79    
Minimum Humidity 55    
Precipitation  
Precipitation T in 0.08 in 1.28 in (1958)
Month to date precipitation 0.02 1.24  
Year to date precipitation 8.30 10.84  
Snow  
Snow 0.00 in - - ()
Month to date snowfall 0.0  
Since 1 July snowfall 0.0  
Since 1 September snowfall 0.0  
Snow Depth 0.00 in    
Sea Level Pressure  
Sea Level Pressure 29.94 in    
Wind  
Wind Speed 7 mph (SE)    
Max Wind Speed 15 mph    
Max Gust Speed 21 mph    
Visibility 10 miles    
Events      
T = Trace of Precipitation, MM = Missing Value Source: NWS Daily Summary

Daily Weather History Graph

Daily Weather History Graph

Search for Another Location

Airport or City:

Trip Planner

Search our weather history database for the weather conditions in past years. The results will help you decide how hot, cold, wet, or windy it might be!

Date:

Astronomy

Oct. 23, 2012 Rise Set
Actual Time 6:30 AM HST 6:00 PM HST
Civil Twilight 6:08 AM HST 6:23 PM HST
Nautical Twilight 5:42 AM HST 6:49 PM HST
Astronomical Twilight 5:16 AM HST 7:15 PM HST
Moon 2:13 PM HST (10/23) 1:16 AM HST (10/23)
Length of Visible Light 12h 15m
Length of Day
11h 29m
Waxing Gibbous, 69% of the Moon is Illuminated
Oct 23
Waxing Gibbous
Oct 29
Full
Nov 6
Last Quarter
Nov 13
New
Nov 20
First Quarter

Hourly Weather History & Observations

Time (HST) Temp. Heat Index Dew Point Humidity Pressure Visibility Wind Dir Wind Speed Gust Speed Precip Events Conditions
12:53 AM 77.0 °F - 64.9 °F 66% 29.96 in 10.0 mi NE 10.4 mph - N/A   Mostly Cloudy
1:53 AM 75.0 °F - 64.0 °F 69% 29.95 in 10.0 mi NNE 3.5 mph - N/A   Scattered Clouds
2:53 AM 75.0 °F - 64.0 °F 69% 29.94 in 10.0 mi Calm Calm - N/A   Partly Cloudy
3:53 AM 75.0 °F - 64.9 °F 71% 29.93 in 10.0 mi East 5.8 mph - N/A   Partly Cloudy
4:53 AM 75.9 °F - 66.0 °F 71% 29.93 in 10.0 mi NE 9.2 mph - N/A   Mostly Cloudy
5:53 AM 75.0 °F - 66.0 °F 73% 29.94 in 10.0 mi NNE 5.8 mph - N/A   Mostly Cloudy
6:53 AM 73.9 °F - 66.0 °F 76% 29.96 in 10.0 mi Calm Calm - N/A   Scattered Clouds
7:53 AM 75.9 °F - 66.0 °F 71% 29.97 in 10.0 mi NNW 3.5 mph - N/A   Scattered Clouds
8:53 AM 78.1 °F - 66.0 °F 66% 29.98 in 10.0 mi ESE 3.5 mph - N/A   Scattered Clouds
9:53 AM 81.0 °F 83.3 °F 66.9 °F 62% 29.97 in 10.0 mi Calm Calm - N/A   Scattered Clouds
10:53 AM 81.0 °F 83.3 °F 66.9 °F 62% 29.96 in 10.0 mi South 9.2 mph - 0.00 in   Scattered Clouds
11:53 AM 82.0 °F 83.8 °F 64.9 °F 56% 29.93 in 10.0 mi South 8.1 mph - N/A   Scattered Clouds
12:53 PM 82.0 °F 84.5 °F 66.9 °F 60% 29.90 in 10.0 mi SE 12.7 mph - N/A   Scattered Clouds
1:53 PM 82.0 °F 84.9 °F 68.0 °F 62% 29.89 in 10.0 mi SSE 13.8 mph - N/A   Scattered Clouds
2:53 PM 82.0 °F 85.5 °F 69.1 °F 65% 29.88 in 10.0 mi SSE 10.4 mph - N/A   Scattered Clouds
3:53 PM 81.0 °F 84.1 °F 69.1 °F 67% 29.88 in 10.0 mi SSE 8.1 mph - N/A   Scattered Clouds
4:53 PM 80.1 °F 82.9 °F 69.1 °F 69% 29.89 in 10.0 mi SSE 6.9 mph - N/A   Scattered Clouds
5:53 PM 79.0 °F - 69.1 °F 72% 29.91 in 10.0 mi South 5.8 mph - N/A   Mostly Cloudy
6:53 PM 78.1 °F - 68.0 °F 71% 29.93 in 10.0 mi Calm Calm - N/A   Mostly Cloudy
7:53 PM 78.1 °F - 69.1 °F 74% 29.95 in 10.0 mi South 3.5 mph - N/A   Mostly Cloudy
8:53 PM 79.0 °F - 69.1 °F 72% 29.96 in 10.0 mi SSW 3.5 mph - N/A   Mostly Cloudy
9:53 PM 78.1 °F - 70.0 °F 76% 29.96 in 10.0 mi Calm Calm - N/A   Mostly Cloudy
10:53 PM 79.0 °F - 69.1 °F 72% 29.95 in 10.0 mi Calm Calm - N/A   Mostly Cloudy
11:53 PM 78.1 °F - 69.1 °F 74% 29.94 in 10.0 mi North 4.6 mph - N/A   Mostly Cloudy